Location: Laas
(43.4693°N, 0.3073°E)
Time: 15:12:28
(UTC+00:00)

Cosmos 1656 - Pass Details

Date: 25 October 2020
Orbit: 796 x 851 km, 71.1° (Epoch: 23 November)

Event Time Altitude Azimuth Distance (km) Brightness Sun altitude
Rises 17:53:23 0° 177° (S) 3,323 6.9 -10.4°
Reaches altitude 10° 17:55:57 10° 169° (S) 2,404 6.0 -10.9°
Maximum altitude 18:00:54 35° 105° (ESE) 1,306 4.2 -11.8°
Drops below altitude 10° 18:05:57 10° 41° (NE) 2,453 5.7 -12.7°
Enters shadow 18:07:26 - 36° (NE) 2,982 6.2 -13.0°
